Location: Dreilärchen
(47.9312°N, 8.6113°E)
Time: 02:09:30
(UTC+00:00)

Cosmos 1271 Rocket - Pass Details

Date: 26 May 2022
Orbit: 495 x 539 km, 81.2° (Epoch: 26 June)

Event Time Altitude Azimuth Distance (km) Brightness Sun altitude
Rises 02:24:38 0° 340° (NNW) 2,625 6.7 -9.8°
Reaches altitude 10° 02:26:54 10° 330° (NNW) 1,741 5.6 -9.6°
Maximum altitude 02:30:19 32° 267° (W) 911 3.6 -9.2°
Enters shadow 02:33:45 10° 203° (SSW) 1,750 4.8 -8.8°
